Tracking 20621 objects as of 1-Apr-2020
HD Live streaming from Space Station
objects crossing your sky now

SL-14 R/B

Track SL-14 R/B now!
10-day predictions


NORAD ID: 17588
Int'l Code: 1987-026G
Perigee: 1,418.5 km
Apogee: 1,477.3 km
Inclination: 82.6 °
Period: 114.7 minutes
Semi major axis: 7818 km
RCS: 5.338 m2 (large)
Launch date: March 13, 1987
Source: Commonwealth of Independent States (former USSR) (CIS)
Launch site: PLESETSK MISSILE AND SPACE COMPLEX (PKMTR)

Note: This is a ROCKET BODY
aabbcc
Your satellite tracking list
Your tracking list is empty




NASA's NSSDC Master Catalog

Two Line Element Set (TLE):
1 17588U 87026G   20091.81270476 +.00000004 +00000-0 -40967-4 0  9994
2 17588 082.5707 336.8679 0037631 193.9850 233.6122 12.55693705514874
Source of the keplerian elements: AFSPC